TimeCDT,TemperatureF,Dew PointF,Humidity,Sea Level PressureIn,VisibilityMPH,Wind Direction,Wind SpeedMPH,Gust SpeedMPH,PrecipitationIn,Events,Conditions,WindDirDegrees,DateUTC
12:15 AM,42.8,42.8,100,30.16,10.0,Calm,Calm,-,N/A,,Clear,0,2012-09-10 05:15:00
12:35 AM,42.8,41.0,93,30.16,10.0,Calm,Calm,-,N/A,,Clear,0,2012-09-10 05:35:00
12:55 AM,41.0,41.0,100,30.16,10.0,Calm,Calm,-,N/A,,Clear,0,2012-09-10 05:55:00
1:15 AM,41.0,39.2,93,30.15,10.0,Calm,Calm,-,N/A,,Clear,0,2012-09-10 06:15:00
1:35 AM,41.0,41.0,100,30.16,10.0,Calm,Calm,-,N/A,,Clear,0,2012-09-10 06:35:00
1:55 AM,41.0,39.2,93,30.16,10.0,Calm,Calm,-,N/A,,Clear,0,2012-09-10 06:55:00
2:15 AM,41.0,39.2,93,30.15,10.0,Calm,Calm,-,N/A,,Clear,0,2012-09-10 07:15:00
2:35 AM,41.0,39.2,93,30.16,10.0,Calm,Calm,-,N/A,,Clear,0,2012-09-10 07:35:00
2:55 AM,39.2,37.4,93,30.16,10.0,Calm,Calm,-,N/A,,Clear,0,2012-09-10 07:55:00
3:15 AM,37.4,37.4,100,30.16,10.0,Calm,Calm,-,N/A,,Clear,0,2012-09-10 08:15:00
3:35 AM,37.4,37.4,100,30.16,10.0,Calm,Calm,-,N/A,,Clear,0,2012-09-10 08:35:00
3:55 AM,37.4,35.6,93,30.16,10.0,Calm,Calm,-,N/A,,Clear,0,2012-09-10 08:55:00
4:15 AM,35.6,35.6,100,30.16,10.0,Calm,Calm,-,N/A,,Clear,0,2012-09-10 09:15:00
4:35 AM,35.6,35.6,100,30.16,10.0,Calm,Calm,-,N/A,,Clear,0,2012-09-10 09:35:00
4:55 AM,37.4,35.6,93,30.16,10.0,Calm,Calm,-,N/A,,Scattered Clouds,0,2012-09-10 09:55:00
5:15 AM,35.6,35.6,100,30.17,10.0,Calm,Calm,-,N/A,,Scattered Clouds,0,2012-09-10 10:15:00
5:35 AM,35.6,35.6,100,30.16,10.0,Calm,Calm,-,N/A,,Clear,0,2012-09-10 10:35:00
5:55 AM,35.6,35.6,100,30.17,10.0,Calm,Calm,-,N/A,,Clear,0,2012-09-10 10:55:00
6:15 AM,35.6,35.6,100,30.17,10.0,Calm,Calm,-,N/A,,Clear,0,2012-09-10 11:15:00
6:35 AM,35.6,35.6,100,30.17,10.0,Calm,Calm,-,N/A,,Clear,0,2012-09-10 11:35:00
6:55 AM,35.6,35.6,100,30.17,10.0,Calm,Calm,-,N/A,,Clear,0,2012-09-10 11:55:00
7:15 AM,37.4,35.6,93,30.18,10.0,Calm,Calm,-,N/A,,Clear,0,2012-09-10 12:15:00
7:35 AM,39.2,37.4,93,30.17,10.0,Calm,Calm,-,N/A,,Clear,0,2012-09-10 12:35:00
7:55 AM,42.8,41.0,93,30.17,10.0,Calm,Calm,-,N/A,,Clear,0,2012-09-10 12:55:00
8:15 AM,46.4,42.8,87,30.17,10.0,Calm,Calm,-,N/A,,Clear,0,2012-09-10 13:15:00
8:35 AM,50.0,46.4,87,30.17,10.0,Calm,Calm,-,N/A,,Clear,0,2012-09-10 13:35:00
8:55 AM,55.4,46.4,72,30.16,10.0,Calm,Calm,-,N/A,,Clear,0,2012-09-10 13:55:00
9:15 AM,62.6,48.2,59,30.15,10.0,South,3.5,-,N/A,,Clear,190,2012-09-10 14:15:00
9:35 AM,64.4,48.2,56,30.15,10.0,SSW,5.8,-,N/A,,Clear,200,2012-09-10 14:35:00
9:55 AM,68.0,48.2,49,30.15,10.0,SW,5.8,-,N/A,,Clear,230,2012-09-10 14:55:00
10:15 AM,69.8,48.2,46,30.15,10.0,South,8.1,-,N/A,,Clear,190,2012-09-10 15:15:00
10:35 AM,69.8,46.4,43,30.14,10.0,SSW,9.2,-,N/A,,Clear,200,2012-09-10 15:35:00
10:55 AM,71.6,46.4,41,30.14,10.0,SW,10.4,-,N/A,,Clear,230,2012-09-10 15:55:00
11:15 AM,71.6,46.4,41,30.14,10.0,SSW,5.8,-,N/A,,Clear,210,2012-09-10 16:15:00
11:35 AM,71.6,46.4,41,30.14,10.0,South,11.5,18.4,N/A,,Clear,190,2012-09-10 16:35:00
11:55 AM,73.4,46.4,38,30.13,10.0,South,12.7,19.6,N/A,,Clear,190,2012-09-10 16:55:00
12:15 PM,73.4,46.4,38,30.13,10.0,SSW,12.7,19.6,N/A,,Clear,200,2012-09-10 17:15:00
12:35 PM,73.4,44.6,36,30.11,10.0,SW,10.4,17.3,N/A,,Clear,230,2012-09-10 17:35:00
12:55 PM,73.4,44.6,36,30.11,10.0,South,10.4,-,N/A,,Clear,190,2012-09-10 17:55:00
1:15 PM,73.4,44.6,36,30.10,10.0,SSW,12.7,18.4,N/A,,Clear,200,2012-09-10 18:15:00
1:35 PM,77.0,44.6,32,30.09,10.0,South,11.5,-,N/A,,Clear,180,2012-09-10 18:35:00
1:55 PM,77.0,44.6,32,30.08,10.0,South,16.1,23.0,N/A,,Clear,190,2012-09-10 18:55:00
2:15 PM,77.0,44.6,32,30.07,10.0,South,13.8,23.0,N/A,,Clear,180,2012-09-10 19:15:00
2:35 PM,77.0,44.6,32,30.06,10.0,SSW,11.5,19.6,N/A,,Clear,200,2012-09-10 19:35:00
2:55 PM,77.0,44.6,32,30.05,10.0,South,13.8,20.7,N/A,,Clear,190,2012-09-10 19:55:00
3:15 PM,77.0,44.6,32,30.05,10.0,South,12.7,21.9,N/A,,Clear,170,2012-09-10 20:15:00
3:35 PM,77.0,44.6,32,30.04,10.0,South,12.7,20.7,N/A,,Clear,170,2012-09-10 20:35:00
3:55 PM,77.0,44.6,32,30.04,10.0,SSW,13.8,18.4,N/A,,Clear,200,2012-09-10 20:55:00
4:15 PM,77.0,44.6,32,30.03,10.0,South,11.5,20.7,N/A,,Clear,180,2012-09-10 21:15:00
4:35 PM,77.0,44.6,32,30.03,10.0,South,11.5,19.6,N/A,,Clear,190,2012-09-10 21:35:00
4:55 PM,77.0,44.6,32,30.02,10.0,South,11.5,19.6,N/A,,Clear,180,2012-09-10 21:55:00
5:15 PM,77.0,42.8,29,30.02,10.0,SSW,9.2,17.3,N/A,,Clear,200,2012-09-10 22:15:00
5:35 PM,75.2,44.6,34,30.01,10.0,South,15.0,20.7,N/A,,Clear,180,2012-09-10 22:35:00
5:55 PM,75.2,42.8,31,30.01,10.0,South,15.0,23.0,N/A,,Clear,190,2012-09-10 22:55:00
6:15 PM,73.4,44.6,36,30.01,10.0,South,10.4,19.6,N/A,,Clear,180,2012-09-10 23:15:00
6:35 PM,73.4,44.6,36,30.00,10.0,South,10.4,17.3,N/A,,Clear,190,2012-09-10 23:35:00
6:55 PM,71.6,44.6,38,29.99,10.0,South,11.5,19.6,N/A,,Clear,180,2012-09-10 23:55:00
7:15 PM,69.8,44.6,40,29.99,10.0,South,6.9,-,N/A,,Clear,190,2012-09-11 00:15:00
7:35 PM,68.0,46.4,46,29.99,10.0,South,6.9,-,N/A,,Clear,180,2012-09-11 00:35:00
7:55 PM,68.0,46.4,46,29.98,10.0,South,8.1,-,N/A,,Clear,190,2012-09-11 00:55:00
8:15 PM,68.0,46.4,46,29.98,10.0,South,5.8,-,N/A,,Clear,180,2012-09-11 01:15:00
8:35 PM,68.0,46.4,46,29.99,10.0,SSW,4.6,-,N/A,,Clear,200,2012-09-11 01:35:00
8:55 PM,68.0,46.4,46,29.99,10.0,SSW,3.5,-,N/A,,Clear,210,2012-09-11 01:55:00
9:15 PM,68.0,46.4,46,29.99,10.0,SSW,4.6,-,N/A,,Clear,200,2012-09-11 02:15:00
9:35 PM,66.2,46.4,49,30.00,10.0,SSW,4.6,-,N/A,,Clear,200,2012-09-11 02:35:00
9:55 PM,66.2,46.4,49,29.99,10.0,South,4.6,-,N/A,,Clear,180,2012-09-11 02:55:00
10:15 PM,64.4,46.4,52,29.99,10.0,South,6.9,-,N/A,,Clear,180,2012-09-11 03:15:00
10:35 PM,64.4,46.4,52,29.99,10.0,South,6.9,-,N/A,,Clear,190,2012-09-11 03:35:00
10:55 PM,64.4,46.4,52,29.99,10.0,South,8.1,-,N/A,,Clear,190,2012-09-11 03:55:00
11:15 PM,64.4,46.4,52,30.00,10.0,South,5.8,-,N/A,,Clear,190,2012-09-11 04:15:00
11:35 PM,64.4,46.4,52,30.00,10.0,South,6.9,-,N/A,,Clear,190,2012-09-11 04:35:00
11:55 PM,64.4,46.4,52,30.00,10.0,SSW,5.8,-,N/A,,Clear,200,2012-09-11 04:55:00